This is the latest recevied weather packets stored in our database for station/object W6MAF. If no packets are shown the sender has not sent any weather packets the latest 10 day(s).
| Time | Temp. | Humidity | Pressure | Rain* | Wind** | Luminosity | Snow |
|---|---|---|---|---|---|---|---|
| 1788238454 | 17.22° C | 30% | - | 0 mm | 4.92 m/s, 174° | - | - |
| 1788238408 | 17.22° C | 30% | - | 0 mm | 4.92 m/s, 174° | - | - |
| 1788238111 | 17.78° C | 30% | - | 0 mm | 4.47 m/s, 180° | - | - |
| 1788237515 | 17.78° C | 31% | - | 0 mm | 4.47 m/s, 166° | - | - |
| 1788237217 | 17.78° C | 32% | - | 0 mm | 5.36 m/s, 159° | - | - |
| 1788236920 | 17.78° C | 34% | - | 0 mm | 5.36 m/s, 176° | - | - |
| 1788236619 | 17.78° C | 35% | - | 0 mm | 5.36 m/s, 165° | - | - |
| 1788236321 | 18.33° C | 36% | - | 0 mm | 5.36 m/s, 179° | - | - |
| 1788236023 | 18.33° C | 37% | - | 0 mm | 4.47 m/s, 162° | - | - |
| 1788235727 | 18.33° C | 37% | - | 0 mm | 5.81 m/s, 170° | - | - |
| 1788235428 | 18.33° C | 37% | - | 0 mm | 6.26 m/s, 158° | - | - |
| 1788235130 | 18.33° C | 36% | - | 0 mm | 4.92 m/s, 160° | - | - |
| 1788234829 | 18.33° C | 35% | - | 0 mm | 6.26 m/s, 173° | - | - |
| 1788234532 | 18.33° C | 36% | - | 0 mm | 5.81 m/s, 181° | - | - |
| 1788234234 | 18.89° C | 38% | - | 0 mm | 7.15 m/s, 153° | - | - |
| 1788233936 | 18.89° C | 38% | - | 0 mm | 6.26 m/s, 183° | - | - |
| 1788233638 | 18.89° C | 38% | - | 0 mm | 5.81 m/s, 156° | - | - |
| 1788233341 | 18.89° C | 37% | - | 0 mm | 6.26 m/s, 169° | - | - |
| 1788233040 | 18.89° C | 37% | - | 0 mm | 6.71 m/s, 174° | - | - |
| 1788233040 | 18.89° C | 37% | - | 0 mm | 6.71 m/s, 174° | - | - |
| 1788232742 | 19.44° C | 37% | - | 0 mm | 6.26 m/s, 174° | - | - |
| 1788232444 | 19.44° C | 36% | - | 0 mm | 6.71 m/s, 159° | - | - |
| 1788232146 | 19.44° C | 35% | - | 0 mm | 5.36 m/s, 149° | - | - |
| 1788231849 | 20° C | 34% | - | 0 mm | 5.36 m/s, 148° | - | - |
| 1788231551 | 20° C | 32% | - | 0 mm | 6.71 m/s, 139° | - | - |
* Rain latest hour (hover to see other rain measurements)
** Current wind speed in m/s (hover to see current wind gust speed)